Weather History for KBBB - December, 2013

Change the Weather History Date:

Tuesday, December 3, 2013

  Actual Average Record
Temperature  
Mean Temperature 32 °F -  
Max Temperature 33 °F 28 °F - (-1)
Min Temperature 32 °F 11 °F - (-1)
Degree Days  
Heating Degree Days 32    
Moisture  
Dew Point 32 °F    
Average Humidity 95    
Maximum Humidity 100    
Minimum Humidity 87    
Precipitation  
Precipitation 0.00 in - - ()
Sea Level Pressure  
Sea Level Pressure 29.68 in    
Wind  
Wind Speed 5 mph (NE)    
Max Wind Speed 10 mph    
Max Gust Speed -    
Visibility 2 miles    
Events Fog    
Averages and records for this station are not official NWS values.
T = Trace of Precipitation, MM = Missing Value Source: NWS Daily Summary

Daily Weather History Graph

Daily Weather History Graph

Search for Another Location

Airport or City:

Trip Planner

Search our weather history database for the weather conditions in past years. The results will help you decide how hot, cold, wet, or windy it might be!

Date:

Astronomy

Dec. 03, 2013 Rise Set
Actual Time 7:44 AM CST 4:40 PM CST
Civil Twilight 7:10 AM CST 5:14 PM CST
Nautical Twilight 6:33 AM CST 5:51 PM CST
Astronomical Twilight 5:58 AM CST 6:26 PM CST
Moon 8:13 AM CST (12/3) 5:46 PM CST (12/3)
Length of Visible Light 10h 03m
Length of Day
8h 56m
New Moon, 1% of the Moon is Illuminated
Dec 3
New Moon
Dec 9
First Quarter
Dec 17
Full
Dec 25
Last Quarter
Jan 1
New

Hourly Weather History & Observations

Time (CST) Temp. Windchill Dew Point Humidity Pressure Visibility Wind Dir Wind Speed Gust Speed Precip Events Conditions
12:12 AM 33.8 °F 30.8 °F 33.8 °F 100% 29.56 in 0.5 mi NNE 3.5 mph - N/A Fog Fog
12:32 AM 33.8 °F 30.8 °F 33.8 °F 100% 29.57 in 0.2 mi North 3.5 mph - N/A Fog Fog
12:53 AM 33.8 °F 29.6 °F 33.8 °F 100% 29.58 in 0.2 mi North 4.6 mph - N/A Fog Fog
1:12 AM 33.8 °F 29.6 °F 33.8 °F 100% 29.59 in 0.2 mi North 4.6 mph - N/A Fog Fog
1:32 AM 33.8 °F 29.6 °F 33.8 °F 100% 29.58 in 0.2 mi NNE 4.6 mph - N/A Fog Fog
1:53 AM 33.8 °F 29.6 °F 33.8 °F 100% 29.59 in 0.2 mi NE 4.6 mph - N/A Fog Fog
2:12 AM 33.8 °F 30.8 °F 33.8 °F 100% 29.59 in 0.5 mi NE 3.5 mph - N/A Fog Fog
2:32 AM 33.8 °F 30.8 °F 33.8 °F 100% 29.60 in 0.5 mi NNE 3.5 mph - N/A Fog Fog
2:53 AM 33.8 °F 29.6 °F 33.8 °F 100% 29.60 in 0.5 mi NNE 4.6 mph - N/A Fog Fog
3:12 AM 33.8 °F 30.8 °F 33.8 °F 100% 29.61 in 0.5 mi NNE 3.5 mph - N/A Fog Fog
3:32 AM 33.8 °F 30.8 °F 33.8 °F 100% 29.61 in 0.5 mi North 3.5 mph - N/A Fog Fog
3:53 AM 33.8 °F 28.6 °F 33.8 °F 100% 29.62 in 0.5 mi North 5.8 mph - N/A Fog Fog
4:12 AM 33.8 °F 28.6 °F 33.8 °F 100% 29.61 in 0.8 mi NNE 5.8 mph - N/A   Overcast
4:32 AM 33.8 °F 27.7 °F 32.0 °F 93% 29.61 in 0.8 mi NE 6.9 mph - N/A   Overcast
4:53 AM 33.8 °F 28.6 °F 33.8 °F 100% 29.61 in 0.8 mi NNE 5.8 mph - N/A   Overcast
5:12 AM 33.8 °F 28.6 °F 33.8 °F 100% 29.62 in 0.8 mi NNE 5.8 mph - N/A   Overcast
5:33 AM 33.8 °F 29.6 °F 32.0 °F 93% 29.62 in 0.8 mi NNE 4.6 mph - N/A   Overcast
5:53 AM 33.8 °F 28.6 °F 32.0 °F 93% 29.62 in 1.0 mi NNE 5.8 mph - N/A   Overcast
6:12 AM 33.8 °F 28.6 °F 32.0 °F 93% 29.62 in 1.8 mi NE 5.8 mph - N/A   Overcast
6:33 AM 33.8 °F 29.6 °F 32.0 °F 93% 29.64 in 2.5 mi NNE 4.6 mph - N/A   Overcast
6:53 AM 33.8 °F 28.6 °F 32.0 °F 93% 29.64 in 2.5 mi NE 5.8 mph - N/A   Overcast
7:12 AM 33.8 °F 29.6 °F 32.0 °F 93% 29.64 in 3.0 mi NNE 4.6 mph - N/A   Overcast
7:33 AM 33.8 °F 29.6 °F 32.0 °F 93% 29.65 in 4.0 mi NNE 4.6 mph - N/A   Overcast
7:53 AM 33.8 °F 29.6 °F 32.0 °F 93% 29.65 in 4.0 mi NE 4.6 mph - N/A   Overcast
8:12 AM 33.8 °F 27.7 °F 32.0 °F 93% 29.66 in 4.0 mi NE 6.9 mph - N/A   Overcast
8:33 AM 33.8 °F 27.7 °F 32.0 °F 93% 29.66 in 3.0 mi NE 6.9 mph - N/A   Overcast
8:52 AM 33.8 °F 27.0 °F 32.0 °F 93% 29.67 in 3.0 mi NE 8.1 mph - N/A   Overcast
9:12 AM 33.8 °F 27.0 °F 32.0 °F 93% 29.68 in 1.8 mi NE 8.1 mph - N/A   Overcast
9:33 AM 33.8 °F 25.8 °F 32.0 °F 93% 29.68 in 1.5 mi NE 10.4 mph - N/A   Overcast
9:52 AM 33.8 °F 27.0 °F 32.0 °F 93% 29.69 in 1.5 mi NE 8.1 mph - N/A   Overcast
10:12 AM 33.8 °F 26.4 °F 32.0 °F 93% 29.69 in 2.5 mi NE 9.2 mph - N/A   Overcast
10:33 AM 33.8 °F 26.4 °F 32.0 °F 93% 29.70 in 3.0 mi NE 9.2 mph - N/A   Overcast
10:52 AM 33.8 °F 25.8 °F 33.8 °F 100% 29.70 in 3.0 mi NE 10.4 mph - N/A   Overcast
11:12 AM 33.8 °F 25.8 °F 33.8 °F 100% 29.69 in 3.0 mi ENE 10.4 mph - N/A   Overcast
11:33 AM 33.8 °F 27.0 °F 32.0 °F 93% 29.69 in 3.0 mi NE 8.1 mph - N/A   Overcast
11:52 AM 33.8 °F 26.4 °F 32.0 °F 93% 29.70 in 2.5 mi NE 9.2 mph - N/A   Overcast
12:13 PM 33.8 °F 27.7 °F 32.0 °F 93% 29.70 in 1.8 mi NE 6.9 mph - N/A   Overcast
12:33 PM 33.8 °F 26.4 °F 32.0 °F 93% 29.69 in 1.8 mi NE 9.2 mph - N/A   Overcast
12:52 PM 33.8 °F 26.4 °F 32.0 °F 93% 29.69 in 1.8 mi NE 9.2 mph - N/A   Overcast
1:13 PM 33.8 °F 26.4 °F 32.0 °F 93% 29.69 in 1.5 mi NE 9.2 mph - N/A   Overcast
1:33 PM 33.8 °F 29.6 °F 32.0 °F 93% 29.68 in 1.8 mi ENE 4.6 mph - N/A   Overcast
1:52 PM 33.8 °F 27.7 °F 32.0 °F 93% 29.68 in 2.0 mi ENE 6.9 mph - N/A   Overcast
2:13 PM 33.8 °F 27.0 °F 32.0 °F 93% 29.69 in 2.0 mi NE 8.1 mph - N/A   Overcast
2:32 PM 33.8 °F 27.0 °F 32.0 °F 93% 29.68 in 2.0 mi ENE 8.1 mph - N/A   Overcast
2:52 PM 33.8 °F 27.0 °F 32.0 °F 93% 29.68 in 1.8 mi NE 8.1 mph - N/A   Overcast
3:13 PM 33.8 °F 27.0 °F 32.0 °F 93% 29.69 in 1.5 mi NE 8.1 mph - N/A   Overcast
3:32 PM 33.8 °F 28.6 °F 32.0 °F 93% 29.71 in 1.5 mi NNE 5.8 mph - N/A   Overcast
3:52 PM 33.8 °F 28.6 °F 32.0 °F 93% 29.71 in 1.5 mi NE 5.8 mph - N/A   Overcast
4:13 PM 33.8 °F 27.7 °F 32.0 °F 93% 29.73 in 2.5 mi NNE 6.9 mph - N/A   Overcast
4:32 PM 33.8 °F 27.7 °F 32.0 °F 93% 29.73 in 2.5 mi NNE 6.9 mph - N/A   Overcast
4:52 PM 32.0 °F 26.4 °F 32.0 °F 100% 29.73 in 2.5 mi NNE 5.8 mph - N/A   Overcast
5:13 PM 32.0 °F 24.8 °F 32.0 °F 100% 29.73 in 2.5 mi NNE 8.1 mph - N/A   Overcast
5:32 PM 32.0 °F 25.6 °F 32.0 °F 100% 29.75 in 2.5 mi NNE 6.9 mph - N/A   Overcast
5:52 PM 32.0 °F 25.6 °F 32.0 °F 100% 29.75 in 2.5 mi NNE 6.9 mph - N/A   Overcast
6:13 PM 32.0 °F 26.4 °F 32.0 °F 100% 29.76 in 2.5 mi NNE 5.8 mph - N/A   Overcast
6:32 PM 32.0 °F 27.5 °F 32.0 °F 100% 29.75 in 2.5 mi NNE 4.6 mph - N/A   Overcast
6:52 PM 32.0 °F 27.5 °F 32.0 °F 100% 29.75 in 2.0 mi NNE 4.6 mph - N/A   Overcast
7:13 PM 32.0 °F 28.7 °F 32.0 °F 100% 29.75 in 2.5 mi NNE 3.5 mph - N/A   Overcast
7:32 PM 32.0 °F 27.5 °F 32.0 °F 100% 29.70 in 2.0 mi East 4.6 mph - N/A   Overcast
7:52 PM 33.8 °F 30.8 °F 32.0 °F 93% 29.74 in 3.0 mi NE 3.5 mph - N/A   Overcast
8:13 PM 33.8 °F - 32.0 °F 93% 29.76 in 4.0 mi Calm Calm - N/A   Overcast
8:32 PM 33.8 °F 30.8 °F 32.0 °F 93% 29.76 in 5.0 mi NNE 3.5 mph - N/A   Overcast
8:53 PM 33.8 °F 29.6 °F 32.0 °F 93% 29.76 in 7.0 mi NE 4.6 mph - N/A   Overcast
9:12 PM 33.8 °F - 32.0 °F 93% 29.76 in 7.0 mi Calm Calm - N/A   Overcast
9:32 PM 33.8 °F 30.8 °F 32.0 °F 93% 29.77 in 7.0 mi NE 3.5 mph - N/A   Overcast
9:53 PM 33.8 °F 30.8 °F 32.0 °F 93% 29.77 in 5.0 mi ENE 3.5 mph - N/A   Overcast
10:12 PM 33.8 °F 29.6 °F 32.0 °F 93% 29.76 in 5.0 mi East 4.6 mph - N/A   Overcast
10:32 PM 33.8 °F 27.7 °F 32.0 °F 93% 29.75 in 5.0 mi East 6.9 mph - N/A   Overcast
10:53 PM 33.8 °F 27.7 °F 32.0 °F 93% 29.75 in 7.0 mi ESE 6.9 mph - N/A   Overcast
11:12 PM 33.8 °F 28.6 °F 32.0 °F 93% 29.75 in - East 5.8 mph - N/A   Unknown
11:32 PM 33.8 °F 28.6 °F 30.2 °F 87% 29.76 in 10.0 mi ESE 5.8 mph - N/A   Overcast
11:53 PM 33.8 °F 29.6 °F 30.2 °F 87% 29.75 in 7.0 mi ESE 4.6 mph - N/A   Overcast